This is the latest recevied weather packets stored in our database for station/object KC3WWU. If no packets are shown the sender has not sent any weather packets the latest 10 day(s).
| Time | Temp. | Humidity | Pressure | Rain* | Wind** | Luminosity | Snow |
|---|---|---|---|---|---|---|---|
| 1777355104 | 11.67° C | 69% | 1016.1 hPa | 0 mm | - | 0 W/m² | - |
| 1777354800 | 11.67° C | 69% | 1016.2 hPa | 0 mm | - | 0 W/m² | - |
| 1777354496 | 12.22° C | 69% | 1016.3 hPa | 0 mm | - | 0 W/m² | - |
| 1777354194 | 12.22° C | 68% | 1016.3 hPa | 0 mm | - | 0 W/m² | - |
| 1777353890 | 12.22° C | 67% | 1016.4 hPa | 0 mm | - | 0 W/m² | - |
| 1777353587 | 11.67° C | 69% | 1016.4 hPa | 0 mm | - | 0 W/m² | - |
| 1777353285 | 12.22° C | 68% | 1016.4 hPa | 0 mm | - | 0 W/m² | - |
| 1777352982 | 12.22° C | 68% | 1016.3 hPa | 0 mm | - | 0 W/m² | - |
| 1777352681 | 12.22° C | 68% | 1016.2 hPa | 0 mm | - | 0 W/m² | - |
| 1777352379 | 12.22° C | 68% | 1016.1 hPa | 0 mm | - | 0 W/m² | - |
| 1777352075 | 12.22° C | 69% | 1016.3 hPa | 0 mm | - | 0 W/m² | - |
| 1777351772 | 12.22° C | 67% | 1016.2 hPa | 0 mm | - | 0 W/m² | - |
| 1777351470 | 12.22° C | 68% | 1016.3 hPa | 0 mm | - | 0 W/m² | - |
| 1777351169 | 12.22° C | 68% | 1016.5 hPa | 0 mm | - | 0 W/m² | - |
| 1777350868 | 12.22° C | 69% | 1016.2 hPa | 0 mm | - | 0 W/m² | - |
| 1777350568 | 12.22° C | 68% | 1016.3 hPa | 0 mm | - | 0 W/m² | - |
| 1777350266 | 12.22° C | 68% | 1016.4 hPa | 0 mm | - | 0 W/m² | - |
| 1777349962 | 12.22° C | 69% | 1016.7 hPa | 0 mm | - | 0 W/m² | - |
| 1777349660 | 12.22° C | 69% | 1016.5 hPa | 0 mm | - | 0 W/m² | - |
| 1777349358 | 12.22° C | 72% | 1016.5 hPa | 0 mm | - | 0 W/m² | - |
| 1777349056 | 12.22° C | 70% | 1016.7 hPa | 0 mm | - | 0 W/m² | - |
| 1777348752 | 12.22° C | 71% | 1016.8 hPa | 0 mm | - | 0 W/m² | - |
| 1777348450 | 12.22° C | 70% | 1016.9 hPa | 0 mm | - | 0 W/m² | - |
| 1777348148 | 12.22° C | 70% | 1017 hPa | 0 mm | - | 0 W/m² | - |
| 1777347846 | 12.22° C | 69% | 1016.9 hPa | 0 mm | - | 0 W/m² | - |
* Rain latest hour (hover to see other rain measurements)
** Current wind speed in m/s (hover to see current wind gust speed)